Location: Seven Kings
(51.5667°N, 0.1000°E)
Time: 14:57:04
(UTC+00:00)

SKYMED 2 - Pass Details

Date: 29 October 2020
Orbit: 621 x 623 km, 97.9° (Epoch: 29 November)

Event Time Altitude Azimuth Distance (km) Brightness Sun altitude
Rises 17:48:31 0° 18° (NNE) 2,918 6.8 -11.6°
Reaches altitude 10° 17:50:48 10° 24° (NNE) 2,005 5.9 -11.9°
Maximum altitude 17:55:01 47° 99° (E) 833 3.8 -12.6°
Drops below altitude 10° 17:59:12 10° 174° (S) 1,988 6.2 -13.2°
Sets 18:01:26 0° 180° (S) 2,889 7.1 -13.6°
